Time,TemperatureF,DewpointF,PressureIn,WindDirection,WindDirectionDegrees,WindSpeedMPH,WindSpeedGustMPH,Humidity,HourlyPrecipIn,Conditions,Clouds,dailyrainin,SoftwareType,DateUTC
2013-11-21 00:01:00,74.2,73.0,30.06,SSE,165,0.0,0.0,96,0.00,,,0.00,Wunderground v.1.15,2013-11-21 05:01:00,
2013-11-21 00:02:00,74.1,72.9,30.07,SSE,165,0.0,0.0,96,0.00,,,0.00,Wunderground v.1.15,2013-11-21 05:02:00,
2013-11-21 00:03:00,74.2,73.0,30.06,SSE,165,0.0,0.0,96,0.00,,,0.00,Wunderground v.1.15,2013-11-21 05:03:00,
2013-11-21 00:04:00,74.1,72.9,30.07,SSE,165,0.0,0.0,96,0.00,,,0.00,Wunderground v.1.15,2013-11-21 05:04:00,
2013-11-21 00:05:00,74.1,72.9,30.07,SSE,165,0.0,0.0,96,0.00,,,0.00,Wunderground v.1.15,2013-11-21 05:05:00,
2013-11-21 00:08:00,74.1,72.9,30.07,SSE,165,0.0,0.0,96,0.00,,,0.00,Wunderground v.1.15,2013-11-21 05:08:00,
2013-11-21 00:13:00,74.0,72.8,30.06,SSE,165,0.0,0.0,96,0.00,,,0.00,Wunderground v.1.15,2013-11-21 05:13:00,
2013-11-21 00:18:00,73.8,72.6,30.06,SSE,165,0.0,0.0,96,0.00,,,0.00,Wunderground v.1.15,2013-11-21 05:18:00,
2013-11-21 00:24:00,73.7,72.5,30.06,SSE,165,0.0,0.0,96,0.00,,,0.00,Wunderground v.1.15,2013-11-21 05:24:00,
2013-11-21 00:30:00,73.8,72.6,30.07,NE,39,1.0,1.0,96,0.00,,,0.00,Wunderground v.1.15,2013-11-21 05:30:00,
2013-11-21 00:35:00,73.9,72.7,30.07,NE,42,0.0,1.0,96,0.00,,,0.00,Wunderground v.1.15,2013-11-21 05:35:00,
2013-11-21 00:41:00,73.8,72.6,30.07,NE,43,0.0,0.0,96,0.00,,,0.00,Wunderground v.1.15,2013-11-21 05:41:00,
2013-11-21 00:47:00,73.8,72.6,30.07,NE,36,0.0,0.0,96,0.00,,,0.00,Wunderground v.1.15,2013-11-21 05:47:00,
2013-11-21 00:53:00,73.9,72.7,30.07,NE,39,0.0,0.0,96,0.00,,,0.00,Wunderground v.1.15,2013-11-21 05:53:00,
2013-11-21 00:57:00,73.9,72.7,30.07,NE,47,0.0,0.0,96,0.00,,,0.00,Wunderground v.1.15,2013-11-21 05:57:00,
2013-11-21 01:02:00,73.9,72.7,30.07,NE,49,0.0,0.0,96,0.00,,,0.00,Wunderground v.1.15,2013-11-21 06:02:00,
2013-11-21 01:08:00,73.8,72.6,30.07,NE,44,0.0,0.0,96,0.00,,,0.00,Wunderground v.1.15,2013-11-21 06:08:00,
2013-11-21 01:13:00,73.8,72.6,30.07,NE,50,0.0,0.0,96,0.00,,,0.00,Wunderground v.1.15,2013-11-21 06:13:00,
2013-11-21 01:18:00,73.7,72.5,30.06,NE,39,0.0,0.0,96,0.00,,,0.00,Wunderground v.1.15,2013-11-21 06:18:00,
2013-11-21 01:24:00,73.7,72.5,30.07,East,86,1.0,1.0,96,0.00,,,0.00,Wunderground v.1.15,2013-11-21 06:24:00,
2013-11-21 01:29:00,73.6,72.4,30.07,NNE,29,0.0,2.0,96,0.00,,,0.00,Wunderground v.1.15,2013-11-21 06:29:00,
2013-11-21 01:35:00,73.5,72.3,30.07,NE,53,1.0,1.0,96,0.00,,,0.00,Wunderground v.1.15,2013-11-21 06:35:00,
2013-11-21 01:41:00,73.4,72.2,30.07,NE,46,1.0,1.0,96,0.00,,,0.00,Wunderground v.1.15,2013-11-21 06:41:00,
2013-11-21 01:47:00,73.3,72.1,30.07,East,80,3.0,5.0,96,0.00,,,0.00,Wunderground v.1.15,2013-11-21 06:47:00,
2013-11-21 01:53:00,73.3,72.1,30.07,East,101,2.0,4.0,96,0.00,,,0.00,Wunderground v.1.15,2013-11-21 06:53:00,
2013-11-21 01:59:00,73.2,72.0,30.07,ENE,70,6.0,6.0,96,0.00,,,0.00,Wunderground v.1.15,2013-11-21 06:59:00,
2013-11-21 02:04:00,72.9,71.7,30.07,NE,48,1.0,7.0,96,0.00,,,0.00,Wunderground v.1.15,2013-11-21 07:04:00,
2013-11-21 02:09:00,72.5,71.3,30.07,ENE,70,2.0,7.0,96,0.00,,,0.00,Wunderground v.1.15,2013-11-21 07:09:00,
2013-11-21 02:14:00,72.4,71.2,30.07,NE,53,2.0,7.0,96,0.00,,,0.00,Wunderground v.1.15,2013-11-21 07:14:00,
2013-11-21 02:19:00,72.3,71.1,30.07,NNE,32,0.0,7.0,96,0.00,,,0.01,Wunderground v.1.15,2013-11-21 07:19:00,
2013-11-21 02:24:00,72.4,71.2,30.08,ENE,63,2.0,6.0,96,0.11,,,0.02,Wunderground v.1.15,2013-11-21 07:24:00,
2013-11-21 02:29:00,72.5,71.3,30.08,East,79,1.0,6.0,96,0.24,,,0.05,Wunderground v.1.15,2013-11-21 07:29:00,
2013-11-21 02:34:00,72.4,71.2,30.08,East,89,0.0,5.0,96,0.34,,,0.08,Wunderground v.1.15,2013-11-21 07:34:00,
2013-11-21 02:39:00,72.4,71.2,30.08,East,92,0.0,5.0,96,0.27,,,0.10,Wunderground v.1.15,2013-11-21 07:39:00,
2013-11-21 02:44:00,72.2,71.0,30.08,ESE,106,0.0,2.0,96,0.18,,,0.12,Wunderground v.1.15,2013-11-21 07:44:00,
2013-11-21 02:49:00,72.2,71.0,30.08,East,96,0.0,2.0,96,0.13,,,0.13,Wunderground v.1.15,2013-11-21 07:49:00,
2013-11-21 02:54:00,72.1,70.9,30.08,ESE,114,0.0,1.0,96,0.07,,,0.13,Wunderground v.1.15,2013-11-21 07:54:00,
2013-11-21 02:59:00,72.0,70.8,30.08,ESE,115,0.0,1.0,96,0.04,,,0.13,Wunderground v.1.15,2013-11-21 07:59:00,
2013-11-21 03:04:00,71.8,70.6,30.08,ESE,115,0.0,0.0,96,0.04,,,0.14,Wunderground v.1.15,2013-11-21 08:04:00,
2013-11-21 03:09:00,71.9,70.7,30.08,ESE,117,0.0,0.0,96,0.04,,,0.14,Wunderground v.1.15,2013-11-21 08:09:00,
2013-11-21 03:14:00,71.8,70.6,30.07,ESE,117,0.0,0.0,96,0.04,,,0.14,Wunderground v.1.15,2013-11-21 08:14:00,
2013-11-21 03:19:00,71.8,70.6,30.07,ESE,117,0.0,0.0,96,0.00,,,0.14,Wunderground v.1.15,2013-11-21 08:19:00,
2013-11-21 03:24:00,71.7,70.8,30.07,ESE,117,0.0,0.0,97,0.00,,,0.14,Wunderground v.1.15,2013-11-21 08:24:00,
2013-11-21 03:29:00,71.8,70.9,30.07,ESE,117,0.0,0.0,97,0.00,,,0.14,Wunderground v.1.15,2013-11-21 08:29:00,
2013-11-21 03:34:00,71.9,71.0,30.07,ESE,117,0.0,0.0,97,0.00,,,0.14,Wunderground v.1.15,2013-11-21 08:34:00,
2013-11-21 03:39:00,71.9,71.0,30.07,SW,233,0.0,0.0,97,0.00,,,0.14,Wunderground v.1.15,2013-11-21 08:39:00,
2013-11-21 03:44:00,72.0,71.1,30.07,SW,233,0.0,0.0,97,0.00,,,0.14,Wunderground v.1.15,2013-11-21 08:44:00,
2013-11-21 03:49:00,72.0,71.1,30.06,SW,233,0.0,0.0,97,0.00,,,0.14,Wunderground v.1.15,2013-11-21 08:49:00,
2013-11-21 03:54:00,71.9,71.0,30.06,SW,233,0.0,0.0,97,0.00,,,0.14,Wunderground v.1.15,2013-11-21 08:54:00,
2013-11-21 03:59:00,71.8,70.9,30.06,SW,233,0.0,0.0,97,0.00,,,0.14,Wunderground v.1.15,2013-11-21 08:59:00,
2013-11-21 04:04:00,71.8,70.9,30.07,SW,233,0.0,0.0,97,0.00,,,0.14,Wunderground v.1.15,2013-11-21 09:04:00,
2013-11-21 04:09:00,71.7,70.8,30.07,SW,233,0.0,0.0,97,0.00,,,0.14,Wunderground v.1.15,2013-11-21 09:09:00,
2013-11-21 04:14:00,71.6,70.7,30.07,SW,233,0.0,0.0,97,0.00,,,0.14,Wunderground v.1.15,2013-11-21 09:14:00,
2013-11-21 04:19:00,71.6,70.7,30.07,SW,233,0.0,0.0,97,0.00,,,0.14,Wunderground v.1.15,2013-11-21 09:19:00,
2013-11-21 04:24:00,71.4,70.5,30.07,SW,233,0.0,0.0,97,0.00,,,0.14,Wunderground v.1.15,2013-11-21 09:24:00,
2013-11-21 04:29:00,71.3,70.4,30.07,SW,233,0.0,0.0,97,0.00,,,0.14,Wunderground v.1.15,2013-11-21 09:29:00,
2013-11-21 04:34:00,71.2,70.3,30.07,SW,233,0.0,0.0,97,0.00,,,0.14,Wunderground v.1.15,2013-11-21 09:34:00,
2013-11-21 04:39:00,71.2,70.3,30.07,SW,233,0.0,0.0,97,0.00,,,0.14,Wunderground v.1.15,2013-11-21 09:39:00,
2013-11-21 04:44:00,71.2,70.3,30.08,SW,233,0.0,0.0,97,0.00,,,0.14,Wunderground v.1.15,2013-11-21 09:44:00,
2013-11-21 04:49:00,71.4,70.5,30.07,SW,233,0.0,0.0,97,0.00,,,0.14,Wunderground v.1.15,2013-11-21 09:49:00,
2013-11-21 04:54:00,71.4,70.5,30.08,SW,233,0.0,0.0,97,0.00,,,0.14,Wunderground v.1.15,2013-11-21 09:54:00,
2013-11-21 04:59:00,71.6,70.7,30.08,North,3,0.0,0.0,97,0.00,,,0.14,Wunderground v.1.15,2013-11-21 09:59:00,
2013-11-21 05:04:00,71.7,70.8,30.08,NE,43,0.0,1.0,97,0.00,,,0.14,Wunderground v.1.15,2013-11-21 10:04:00,
2013-11-21 05:09:00,71.8,70.9,30.08,NE,42,0.0,1.0,97,0.00,,,0.14,Wunderground v.1.15,2013-11-21 10:09:00,
2013-11-21 05:14:00,71.9,71.0,30.08,NE,43,0.0,1.0,97,0.00,,,0.14,Wunderground v.1.15,2013-11-21 10:14:00,
2013-11-21 05:19:00,71.8,70.9,30.08,NE,43,0.0,1.0,97,0.00,,,0.14,Wunderground v.1.15,2013-11-21 10:19:00,
2013-11-21 05:24:00,71.8,70.9,30.08,NE,42,0.0,0.0,97,0.00,,,0.14,Wunderground v.1.15,2013-11-21 10:24:00,
2013-11-21 05:29:00,71.8,70.9,30.08,NE,42,0.0,0.0,97,0.00,,,0.14,Wunderground v.1.15,2013-11-21 10:29:00,
2013-11-21 05:34:00,71.8,70.9,30.08,NE,43,0.0,0.0,97,0.00,,,0.14,Wunderground v.1.15,2013-11-21 10:34:00,
2013-11-21 05:39:00,71.8,70.9,30.09,NE,42,0.0,0.0,97,0.00,,,0.14,Wunderground v.1.15,2013-11-21 10:39:00,
2013-11-21 05:44:00,71.8,70.9,30.09,NE,43,0.0,0.0,97,0.00,,,0.14,Wunderground v.1.15,2013-11-21 10:44:00,
2013-11-21 05:49:00,71.8,70.9,30.09,NE,43,0.0,0.0,97,0.00,,,0.14,Wunderground v.1.15,2013-11-21 10:49:00,
2013-11-21 05:54:00,71.8,70.9,30.09,NE,42,0.0,0.0,97,0.00,,,0.14,Wunderground v.1.15,2013-11-21 10:54:00,
2013-11-21 05:59:00,71.7,70.8,30.09,NE,43,0.0,0.0,97,0.00,,,0.14,Wunderground v.1.15,2013-11-21 10:59:00,
2013-11-21 06:04:00,71.7,70.8,30.09,NE,42,0.0,0.0,97,0.00,,,0.14,Wunderground v.1.15,2013-11-21 11:04:00,
2013-11-21 06:09:00,71.6,70.7,30.09,NE,43,0.0,0.0,97,0.00,,,0.14,Wunderground v.1.15,2013-11-21 11:09:00,
2013-11-21 06:14:00,71.6,70.7,30.09,NE,43,0.0,0.0,97,0.00,,,0.14,Wunderground v.1.15,2013-11-21 11:14:00,
2013-11-21 06:19:00,71.5,70.6,30.09,NE,42,0.0,0.0,97,0.00,,,0.14,Wunderground v.1.15,2013-11-21 11:19:00,
2013-11-21 06:24:00,71.4,70.5,30.10,NE,43,0.0,0.0,97,0.00,,,0.14,Wunderground v.1.15,2013-11-21 11:24:00,
2013-11-21 06:29:00,71.4,70.5,30.10,NE,42,0.0,0.0,97,0.00,,,0.14,Wunderground v.1.15,2013-11-21 11:29:00,
2013-11-21 06:34:00,71.4,70.5,30.10,NE,43,0.0,0.0,97,0.00,,,0.14,Wunderground v.1.15,2013-11-21 11:34:00,
2013-11-21 06:39:00,71.4,70.5,30.10,NE,42,0.0,1.0,97,0.00,,,0.14,Wunderground v.1.15,2013-11-21 11:39:00,
2013-11-21 06:44:00,71.4,70.5,30.10,NE,43,0.0,0.0,97,0.00,,,0.14,Wunderground v.1.15,2013-11-21 11:44:00,
2013-11-21 06:49:00,71.4,70.5,30.11,NE,40,0.0,1.0,97,0.00,,,0.14,Wunderground v.1.15,2013-11-21 11:49:00,
2013-11-21 06:54:00,71.5,70.6,30.11,NE,41,0.0,1.0,97,0.00,,,0.14,Wunderground v.1.15,2013-11-21 11:54:00,
2013-11-21 06:59:00,71.4,70.5,30.11,NE,43,0.0,1.0,97,0.00,,,0.14,Wunderground v.1.15,2013-11-21 11:59:00,
2013-11-21 07:04:00,71.5,70.6,30.11,NE,43,0.0,0.0,97,0.00,,,0.14,Wunderground v.1.15,2013-11-21 12:04:00,
2013-11-21 07:09:00,71.5,70.6,30.11,NE,42,0.0,0.0,97,0.00,,,0.14,Wunderground v.1.15,2013-11-21 12:09:00,
2013-11-21 07:14:00,71.6,71.0,30.11,NE,43,0.0,0.0,98,0.00,,,0.14,Wunderground v.1.15,2013-11-21 12:14:00,
2013-11-21 07:19:00,71.6,71.0,30.11,NE,43,0.0,0.0,98,0.00,,,0.14,Wunderground v.1.15,2013-11-21 12:19:00,
2013-11-21 07:24:00,71.7,71.1,30.11,NE,42,0.0,0.0,98,0.00,,,0.14,Wunderground v.1.15,2013-11-21 12:24:00,
2013-11-21 07:29:00,71.8,71.2,30.11,NE,42,0.0,0.0,98,0.00,,,0.14,Wunderground v.1.15,2013-11-21 12:29:00,
2013-11-21 07:34:00,71.9,71.3,30.12,NE,42,0.0,0.0,98,0.00,,,0.14,Wunderground v.1.15,2013-11-21 12:34:00,
2013-11-21 07:39:00,72.1,71.5,30.12,NE,42,0.0,0.0,98,0.00,,,0.14,Wunderground v.1.15,2013-11-21 12:39:00,
2013-11-21 07:44:00,72.4,71.8,30.12,NE,42,0.0,0.0,98,0.00,,,0.14,Wunderground v.1.15,2013-11-21 12:44:00,
2013-11-21 07:49:00,72.9,72.3,30.12,NE,43,0.0,0.0,98,0.00,,,0.14,Wunderground v.1.15,2013-11-21 12:49:00,
2013-11-21 07:54:00,73.6,73.0,30.12,NE,43,0.0,0.0,98,0.00,,,0.14,Wunderground v.1.15,2013-11-21 12:54:00,
2013-11-21 07:59:00,74.0,73.4,30.12,NE,42,0.0,0.0,98,0.00,,,0.14,Wunderground v.1.15,2013-11-21 12:59:00,
2013-11-21 08:04:00,74.2,73.6,30.12,NE,42,0.0,0.0,98,0.00,,,0.14,Wunderground v.1.15,2013-11-21 13:04:00,
2013-11-21 08:09:00,74.7,74.1,30.13,NE,43,0.0,0.0,98,0.00,,,0.14,Wunderground v.1.15,2013-11-21 13:09:00,
2013-11-21 08:14:00,75.1,74.5,30.13,East,91,0.0,0.0,98,0.00,,,0.14,Wunderground v.1.15,2013-11-21 13:14:00,
2013-11-21 08:19:00,75.5,74.9,30.13,East,91,0.0,0.0,98,0.00,,,0.14,Wunderground v.1.15,2013-11-21 13:19:00,
2013-11-21 08:24:00,75.8,74.9,30.13,East,90,0.0,0.0,97,0.00,,,0.14,Wunderground v.1.15,2013-11-21 13:24:00,
2013-11-21 08:29:00,75.8,74.9,30.13,East,94,0.0,0.0,97,0.00,,,0.14,Wunderground v.1.15,2013-11-21 13:29:00,
2013-11-21 08:34:00,76.1,75.2,30.13,East,94,0.0,0.0,97,0.00,,,0.14,Wunderground v.1.15,2013-11-21 13:34:00,
2013-11-21 08:39:00,75.9,74.7,30.13,East,96,0.0,1.0,96,0.00,,,0.14,Wunderground v.1.15,2013-11-21 13:39:00,
2013-11-21 08:44:00,76.2,75.3,30.13,East,96,0.0,0.0,97,0.00,,,0.14,Wunderground v.1.15,2013-11-21 13:44:00,
2013-11-21 08:49:00,76.7,75.8,30.13,East,96,0.0,0.0,97,0.00,,,0.14,Wunderground v.1.15,2013-11-21 13:49:00,
2013-11-21 08:54:00,77.0,75.8,30.13,ENE,76,0.0,1.0,96,0.00,,,0.14,Wunderground v.1.15,2013-11-21 13:54:00,
2013-11-21 08:59:00,77.2,76.0,30.13,NNE,32,0.0,1.0,96,0.00,,,0.14,Wunderground v.1.15,2013-11-21 13:59:00,
2013-11-21 09:04:00,77.5,76.3,30.13,East,84,0.0,1.0,96,0.00,,,0.14,Wunderground v.1.15,2013-11-21 14:04:00,
2013-11-21 09:09:00,77.7,76.5,30.14,ENE,72,0.0,1.0,96,0.00,,,0.14,Wunderground v.1.15,2013-11-21 14:09:00,
2013-11-21 09:14:00,77.9,76.4,30.14,East,79,0.0,1.0,95,0.00,,,0.14,Wunderground v.1.15,2013-11-21 14:14:00,
2013-11-21 09:19:00,78.1,76.2,30.14,East,84,0.0,3.0,94,0.00,,,0.14,Wunderground v.1.15,2013-11-21 14:19:00,
2013-11-21 09:24:00,78.4,76.2,30.14,ENE,68,0.0,2.0,93,0.00,,,0.14,Wunderground v.1.15,2013-11-21 14:24:00,
2013-11-21 09:29:00,78.8,76.3,30.14,North,3,0.0,2.0,92,0.00,,,0.14,Wunderground v.1.15,2013-11-21 14:29:00,
2013-11-21 09:34:00,79.2,76.3,30.14,East,81,1.0,1.0,91,0.00,,,0.14,Wunderground v.1.15,2013-11-21 14:34:00,
2013-11-21 09:39:00,79.5,76.0,30.14,East,90,0.0,4.0,89,0.00,,,0.14,Wunderground v.1.15,2013-11-21 14:39:00,
2013-11-21 09:44:00,79.9,75.3,30.14,East,96,0.0,3.0,86,0.00,,,0.14,Wunderground v.1.15,2013-11-21 14:44:00,
2013-11-21 09:49:00,80.1,74.5,30.14,SE,128,0.0,6.0,83,0.00,,,0.14,Wunderground v.1.15,2013-11-21 14:49:00,
2013-11-21 09:54:00,80.6,74.6,30.14,SSE,159,2.0,4.0,82,0.00,,,0.14,Wunderground v.1.15,2013-11-21 14:54:00,
2013-11-21 09:59:00,81.2,74.4,30.15,ESE,103,0.0,5.0,80,0.00,,,0.14,Wunderground v.1.15,2013-11-21 14:59:00,
2013-11-21 10:04:00,81.4,74.3,30.15,ESE,119,1.0,5.0,79,0.00,,,0.14,Wunderground v.1.15,2013-11-21 15:04:00,
2013-11-21 10:09:00,82.0,74.5,30.15,East,98,0.0,5.0,78,0.00,,,0.14,Wunderground v.1.15,2013-11-21 15:09:00,
2013-11-21 10:14:00,81.9,74.0,30.15,East,91,1.0,4.0,77,0.00,,,0.14,Wunderground v.1.15,2013-11-21 15:14:00,
2013-11-21 10:19:00,82.0,74.1,30.15,ESE,109,2.0,4.0,77,0.00,,,0.14,Wunderground v.1.15,2013-11-21 15:19:00,
2013-11-21 10:24:00,82.5,73.8,30.15,ENE,69,0.0,7.0,75,0.00,,,0.14,Wunderground v.1.15,2013-11-21 15:24:00,
2013-11-21 10:29:00,83.0,73.9,30.15,ENE,69,0.0,7.0,74,0.00,,,0.14,Wunderground v.1.15,2013-11-21 15:29:00,
2013-11-21 10:34:00,82.9,72.9,30.15,East,86,0.0,5.0,72,0.00,,,0.14,Wunderground v.1.15,2013-11-21 15:34:00,
2013-11-21 10:39:00,82.8,72.8,30.15,ENE,75,0.0,5.0,72,0.00,,,0.14,Wunderground v.1.15,2013-11-21 15:39:00,
2013-11-21 10:44:00,83.2,74.0,30.14,ESE,113,0.0,6.0,74,0.00,,,0.14,Wunderground v.1.15,2013-11-21 15:44:00,
2013-11-21 10:49:00,83.6,73.2,30.14,ENE,65,0.0,6.0,71,0.00,,,0.14,Wunderground v.1.15,2013-11-21 15:49:00,
2013-11-21 10:54:00,83.4,72.6,30.14,East,82,0.0,6.0,70,0.00,,,0.14,Wunderground v.1.15,2013-11-21 15:54:00,
2013-11-21 11:00:00,83.3,72.5,30.14,East,100,5.0,6.0,70,0.00,,,0.14,Wunderground v.1.15,2013-11-21 16:00:00,
2013-11-21 11:05:00,83.1,72.3,30.14,East,84,3.0,5.0,70,0.00,,,0.14,Wunderground v.1.15,2013-11-21 16:05:00,
2013-11-21 11:10:00,82.7,71.5,30.14,East,80,0.0,2.0,69,0.00,,,0.14,Wunderground v.1.15,2013-11-21 16:10:00,
2013-11-21 11:15:00,82.7,72.3,30.14,ENE,60,3.0,5.0,71,0.00,,,0.14,Wunderground v.1.15,2013-11-21 16:15:00,
2013-11-21 11:20:00,82.6,72.7,30.14,East,82,0.0,2.0,72,0.00,,,0.14,Wunderground v.1.15,2013-11-21 16:20:00,
2013-11-21 11:25:00,83.2,72.4,30.14,NE,37,0.0,6.0,70,0.00,,,0.14,Wunderground v.1.15,2013-11-21 16:25:00,
2013-11-21 11:30:00,83.7,73.3,30.14,ENE,67,0.0,1.0,71,0.00,,,0.14,Wunderground v.1.15,2013-11-21 16:30:00,
2013-11-21 11:35:00,84.0,72.7,30.14,ENE,70,0.0,5.0,69,0.00,,,0.14,Wunderground v.1.15,2013-11-21 16:35:00,
2013-11-21 11:40:00,84.2,71.6,30.13,ESE,111,0.0,1.0,66,0.00,,,0.14,Wunderground v.1.15,2013-11-21 16:40:00,
2013-11-21 11:45:00,83.9,72.2,30.13,East,80,1.0,7.0,68,0.00,,,0.14,Wunderground v.1.15,2013-11-21 16:45:00,
2013-11-21 11:50:00,84.1,72.8,30.13,NNE,19,0.0,1.0,69,0.00,,,0.14,Wunderground v.1.15,2013-11-21 16:50:00,
2013-11-21 11:55:00,84.8,73.9,30.13,ESE,103,5.0,5.0,70,0.00,,,0.14,Wunderground v.1.15,2013-11-21 16:55:00,
2013-11-21 12:00:00,85.2,73.9,30.13,East,82,5.0,5.0,69,0.00,,,0.14,Wunderground v.1.15,2013-11-21 17:00:00,
2013-11-21 12:05:00,85.2,73.9,30.12,NNE,24,5.0,5.0,69,0.00,,,0.14,Wunderground v.1.15,2013-11-21 17:05:00,
2013-11-21 12:10:00,85.3,73.5,30.12,NE,56,0.0,2.0,68,0.00,,,0.14,Wunderground v.1.15,2013-11-21 17:10:00,
2013-11-21 12:15:00,84.8,73.5,30.12,NNE,13,1.0,6.0,69,0.00,,,0.14,Wunderground v.1.15,2013-11-21 17:15:00,
2013-11-21 12:20:00,84.9,74.0,30.12,NE,39,3.0,8.0,70,0.00,,,0.14,Wunderground v.1.15,2013-11-21 17:20:00,
2013-11-21 12:25:00,84.3,72.6,30.12,ENE,68,4.0,8.0,68,0.00,,,0.14,Wunderground v.1.15,2013-11-21 17:25:00,
2013-11-21 12:32:00,83.6,71.9,30.12,NE,45,6.0,6.0,68,0.00,,,0.14,Wunderground v.1.15,2013-11-21 17:32:00,
2013-11-21 12:37:00,83.6,72.3,30.11,North,4,0.0,6.0,69,0.00,,,0.14,Wunderground v.1.15,2013-11-21 17:37:00,
2013-11-21 12:42:00,83.9,71.8,30.11,ENE,62,0.0,7.0,67,0.00,,,0.14,Wunderground v.1.15,2013-11-21 17:42:00,
2013-11-21 12:47:00,84.0,71.4,30.11,NE,53,1.0,7.0,66,0.00,,,0.14,Wunderground v.1.15,2013-11-21 17:47:00,
2013-11-21 12:52:00,83.7,71.6,30.11,NE,41,2.0,4.0,67,0.00,,,0.14,Wunderground v.1.15,2013-11-21 17:52:00,
2013-11-21 12:57:00,84.1,71.5,30.11,East,101,0.0,5.0,66,0.00,,,0.14,Wunderground v.1.15,2013-11-21 17:57:00,
2013-11-21 13:02:00,84.7,71.6,30.10,ENE,72,2.0,5.0,65,0.00,,,0.14,Wunderground v.1.15,2013-11-21 18:02:00,
2013-11-21 13:07:00,85.0,71.5,30.10,East,96,1.0,5.0,64,0.00,,,0.14,Wunderground v.1.15,2013-11-21 18:07:00,
2013-11-21 13:12:00,84.8,72.2,30.10,ENE,58,1.0,3.0,66,0.00,,,0.14,Wunderground v.1.15,2013-11-21 18:12:00,
2013-11-21 13:17:00,85.1,72.0,30.10,ENE,69,1.0,6.0,65,0.00,,,0.14,Wunderground v.1.15,2013-11-21 18:17:00,
2013-11-21 13:22:00,85.5,72.8,30.09,NE,48,0.0,4.0,66,0.00,,,0.14,Wunderground v.1.15,2013-11-21 18:22:00,
2013-11-21 13:27:00,85.4,71.4,30.09,ENE,58,7.0,8.0,63,0.00,,,0.14,Wunderground v.1.15,2013-11-21 18:27:00,
2013-11-21 13:32:00,85.1,72.5,30.09,ENE,65,4.0,8.0,66,0.00,,,0.14,Wunderground v.1.15,2013-11-21 18:32:00,
2013-11-21 13:37:00,85.4,73.6,30.09,East,86,0.0,8.0,68,0.00,,,0.14,Wunderground v.1.15,2013-11-21 18:37:00,
2013-11-21 13:42:00,85.2,75.1,30.09,NE,36,2.0,10.0,72,0.00,,,0.14,Wunderground v.1.15,2013-11-21 18:42:00,
2013-11-21 13:47:00,84.7,75.5,30.09,NE,38,1.0,10.0,74,0.00,,,0.14,Wunderground v.1.15,2013-11-21 18:47:00,
2013-11-21 13:52:00,83.9,74.3,30.09,ENE,71,1.0,8.0,73,0.00,,,0.14,Wunderground v.1.15,2013-11-21 18:52:00,
2013-11-21 13:57:00,83.5,74.7,30.09,East,89,5.0,8.0,75,0.00,,,0.14,Wunderground v.1.15,2013-11-21 18:57:00,
2013-11-21 14:02:00,83.0,74.3,30.09,East,84,0.0,5.0,75,0.00,,,0.14,Wunderground v.1.15,2013-11-21 19:02:00,
2013-11-21 14:07:00,82.3,74.0,30.09,ENE,72,4.0,12.0,76,0.00,,,0.14,Wunderground v.1.15,2013-11-21 19:07:00,
2013-11-21 14:12:00,81.0,74.2,30.09,ENE,69,1.0,8.0,80,0.00,,,0.14,Wunderground v.1.15,2013-11-21 19:12:00,
2013-11-21 14:17:00,80.1,74.1,30.09,East,88,6.0,10.0,82,0.00,,,0.14,Wunderground v.1.15,2013-11-21 19:17:00,
2013-11-21 14:22:00,79.5,73.9,30.09,ESE,104,3.0,6.0,83,0.00,,,0.14,Wunderground v.1.15,2013-11-21 19:22:00,
2013-11-21 14:27:00,79.3,74.0,30.09,East,82,2.0,11.0,84,0.00,,,0.14,Wunderground v.1.15,2013-11-21 19:27:00,
2013-11-21 14:32:00,79.2,73.9,30.09,ENE,58,2.0,7.0,84,0.00,,,0.14,Wunderground v.1.15,2013-11-21 19:32:00,
2013-11-21 14:37:00,79.3,74.0,30.09,NE,36,2.0,8.0,84,0.00,,,0.14,Wunderground v.1.15,2013-11-21 19:37:00,
2013-11-21 14:42:00,79.6,74.7,30.09,NE,43,2.0,5.0,85,0.00,,,0.14,Wunderground v.1.15,2013-11-21 19:42:00,
2013-11-21 14:47:00,80.1,75.5,30.08,NNE,30,4.0,5.0,86,0.00,,,0.14,Wunderground v.1.15,2013-11-21 19:47:00,
2013-11-21 14:52:00,79.9,75.0,30.08,ESE,108,2.0,4.0,85,0.00,,,0.14,Wunderground v.1.15,2013-11-21 19:52:00,
2013-11-21 14:57:00,79.9,74.6,30.08,East,91,0.0,9.0,84,0.00,,,0.14,Wunderground v.1.15,2013-11-21 19:57:00,
2013-11-21 15:02:00,80.1,74.8,30.08,North,8,0.0,6.0,84,0.00,,,0.14,Wunderground v.1.15,2013-11-21 20:02:00,
2013-11-21 15:07:00,79.9,73.5,30.08,NE,54,1.0,10.0,81,0.00,,,0.14,Wunderground v.1.15,2013-11-21 20:07:00,
2013-11-21 15:12:00,79.6,73.6,30.09,East,84,1.0,6.0,82,0.00,,,0.14,Wunderground v.1.15,2013-11-21 20:12:00,
2013-11-21 15:17:00,79.4,73.4,30.09,East,86,0.0,8.0,82,0.00,,,0.14,Wunderground v.1.15,2013-11-21 20:17:00,
2013-11-21 15:22:00,79.3,73.3,30.09,NNE,23,0.0,4.0,82,0.00,,,0.14,Wunderground v.1.15,2013-11-21 20:22:00,
2013-11-21 15:27:00,79.4,73.8,30.09,NNE,25,1.0,6.0,83,0.00,,,0.14,Wunderground v.1.15,2013-11-21 20:27:00,
2013-11-21 15:32:00,79.3,73.3,30.09,ENE,66,0.0,8.0,82,0.00,,,0.14,Wunderground v.1.15,2013-11-21 20:32:00,
2013-11-21 15:38:00,79.3,73.7,30.09,East,91,2.0,8.0,83,0.00,,,0.14,Wunderground v.1.15,2013-11-21 20:38:00,
2013-11-21 15:43:00,79.4,73.4,30.09,ESE,103,0.0,5.0,82,0.00,,,0.14,Wunderground v.1.15,2013-11-21 20:43:00,
2013-11-21 15:48:00,79.4,73.4,30.09,East,89,2.0,5.0,82,0.00,,,0.14,Wunderground v.1.15,2013-11-21 20:48:00,
2013-11-21 15:53:00,79.6,73.6,30.09,East,88,6.0,6.0,82,0.00,,,0.14,Wunderground v.1.15,2013-11-21 20:53:00,
2013-11-21 15:58:00,79.7,73.3,30.09,East,97,1.0,6.0,81,0.00,,,0.14,Wunderground v.1.15,2013-11-21 20:58:00,
2013-11-21 16:03:00,80.0,73.6,30.09,SE,141,4.0,5.0,81,0.00,,,0.14,Wunderground v.1.15,2013-11-21 21:03:00,
2013-11-21 16:07:00,80.2,73.1,30.09,East,91,1.0,6.0,79,0.00,,,0.14,Wunderground v.1.15,2013-11-21 21:07:00,
2013-11-21 16:13:00,80.7,73.6,30.09,East,91,0.0,6.0,79,0.00,,,0.14,Wunderground v.1.15,2013-11-21 21:13:00,
2013-11-21 16:18:00,81.3,73.8,30.08,ENE,78,0.0,6.0,78,0.00,,,0.14,Wunderground v.1.15,2013-11-21 21:18:00,
2013-11-21 16:23:00,81.4,73.9,30.08,East,87,1.0,4.0,78,0.00,,,0.14,Wunderground v.1.15,2013-11-21 21:23:00,
2013-11-21 16:28:00,81.2,73.7,30.08,ENE,77,3.0,6.0,78,0.00,,,0.14,Wunderground v.1.15,2013-11-21 21:28:00,
2013-11-21 16:33:00,81.2,74.1,30.09,East,88,0.0,4.0,79,0.00,,,0.14,Wunderground v.1.15,2013-11-21 21:33:00,
2013-11-21 16:38:00,81.8,74.6,30.09,East,82,0.0,4.0,79,0.00,,,0.14,Wunderground v.1.15,2013-11-21 21:38:00,
2013-11-21 16:43:00,81.7,74.2,30.09,East,79,0.0,9.0,78,0.00,,,0.14,Wunderground v.1.15,2013-11-21 21:43:00,
2013-11-21 16:47:00,81.2,74.1,30.09,East,96,1.0,9.0,79,0.00,,,0.14,Wunderground v.1.15,2013-11-21 21:47:00,
2013-11-21 16:52:00,80.5,72.6,30.09,ESE,108,5.0,8.0,77,0.00,,,0.14,Wunderground v.1.15,2013-11-21 21:52:00,
2013-11-21 16:57:00,79.7,72.6,30.10,ENE,63,0.0,8.0,79,0.00,,,0.14,Wunderground v.1.15,2013-11-21 21:57:00,
2013-11-21 17:03:00,79.1,72.4,30.09,ENE,68,0.0,4.0,80,0.00,,,0.14,Wunderground v.1.15,2013-11-21 22:03:00,
2013-11-21 17:08:00,78.5,71.8,30.09,East,91,0.0,5.0,80,0.00,,,0.14,Wunderground v.1.15,2013-11-21 22:08:00,
2013-11-21 17:13:00,78.2,71.9,30.10,NE,55,0.0,2.0,81,0.00,,,0.14,Wunderground v.1.15,2013-11-21 22:13:00,
2013-11-21 17:18:00,77.9,72.3,30.10,East,88,0.0,7.0,83,0.00,,,0.14,Wunderground v.1.15,2013-11-21 22:18:00,
2013-11-21 17:23:00,77.6,72.0,30.10,ENE,76,0.0,6.0,83,0.00,,,0.14,Wunderground v.1.15,2013-11-21 22:23:00,
2013-11-21 17:29:00,77.5,72.3,30.10,ENE,78,0.0,7.0,84,0.00,,,0.14,Wunderground v.1.15,2013-11-21 22:29:00,
2013-11-21 17:34:00,77.3,72.4,30.11,East,87,2.0,5.0,85,0.00,,,0.14,Wunderground v.1.15,2013-11-21 22:34:00,
2013-11-21 17:39:00,76.8,72.6,30.11,NNE,19,5.0,6.0,87,0.00,,,0.14,Wunderground v.1.15,2013-11-21 22:39:00,
2013-11-21 17:44:00,76.3,72.8,30.11,ENE,63,6.0,8.0,89,0.00,,,0.14,Wunderground v.1.15,2013-11-21 22:44:00,
2013-11-21 17:49:00,75.7,72.9,30.11,NNE,15,0.0,8.0,91,0.00,,,0.15,Wunderground v.1.15,2013-11-21 22:49:00,
2013-11-21 17:54:00,75.3,72.8,30.11,ENE,71,1.0,5.0,92,0.00,,,0.15,Wunderground v.1.15,2013-11-21 22:54:00,
2013-11-21 17:59:00,75.1,72.9,30.12,NE,56,0.0,5.0,93,0.07,,,0.16,Wunderground v.1.15,2013-11-21 22:59:00,
2013-11-21 18:04:00,74.9,72.7,30.12,East,89,4.0,6.0,93,0.07,,,0.16,Wunderground v.1.15,2013-11-21 23:04:00,
2013-11-21 18:09:00,74.9,73.1,30.12,South,181,5.0,6.0,94,0.46,,,0.17,Wunderground v.1.15,2013-11-21 23:09:00,
2013-11-21 18:14:00,74.8,73.0,30.13,ESE,104,4.0,9.0,94,0.81,,,0.26,Wunderground v.1.15,2013-11-21 23:14:00,
2013-11-21 18:19:00,74.5,72.7,30.13,East,80,2.0,9.0,94,0.73,,,0.34,Wunderground v.1.15,2013-11-21 23:19:00,
2013-11-21 18:24:00,74.0,71.8,30.13,East,94,4.0,8.0,93,1.62,,,0.41,Wunderground v.1.15,2013-11-21 23:24:00,
2013-11-21 18:29:00,73.6,71.8,30.14,ENE,74,1.0,8.0,94,1.01,,,0.52,Wunderground v.1.15,2013-11-21 23:29:00,
2013-11-21 18:34:00,73.3,71.5,30.14,ESE,104,0.0,5.0,94,0.55,,,0.57,Wunderground v.1.15,2013-11-21 23:34:00,
2013-11-21 18:39:00,73.1,71.3,30.13,ESE,108,0.0,5.0,94,0.26,,,0.60,Wunderground v.1.15,2013-11-21 23:39:00,
2013-11-21 18:44:00,72.9,71.4,30.13,East,101,0.0,4.0,95,0.17,,,0.61,Wunderground v.1.15,2013-11-21 23:44:00,
2013-11-21 18:49:00,72.9,71.4,30.13,ESE,108,0.0,4.0,95,0.15,,,0.62,Wunderground v.1.15,2013-11-21 23:49:00,
2013-11-21 18:54:00,72.8,71.3,30.13,East,91,0.0,1.0,95,0.13,,,0.63,Wunderground v.1.15,2013-11-21 23:54:00,
2013-11-21 18:59:00,72.9,71.4,30.14,East,91,0.0,1.0,95,0.08,,,0.64,Wunderground v.1.15,2013-11-21 23:59:00,
2013-11-21 19:04:00,72.9,71.4,30.14,NE,56,5.0,5.0,95,0.73,,,0.69,Wunderground v.1.15,2013-11-22 00:04:00,
2013-11-21 19:09:00,72.9,71.4,30.14,NE,46,1.0,7.0,95,1.55,,,0.83,Wunderground v.1.15,2013-11-22 00:09:00,
2013-11-21 19:14:00,72.9,71.7,30.14,NE,34,1.0,7.0,96,0.34,,,0.88,Wunderground v.1.15,2013-11-22 00:14:00,
2013-11-21 19:19:00,73.0,71.8,30.14,NE,37,2.0,7.0,96,0.28,,,0.91,Wunderground v.1.15,2013-11-22 00:19:00,
2013-11-21 19:24:00,73.1,71.9,30.14,ESE,105,0.0,7.0,96,0.19,,,0.93,Wunderground v.1.15,2013-11-22 00:24:00,
2013-11-21 19:29:00,73.3,72.1,30.13,East,93,0.0,7.0,96,0.13,,,0.94,Wunderground v.1.15,2013-11-22 00:29:00,
2013-11-21 19:34:00,73.4,72.2,30.14,SE,132,0.0,1.0,96,0.13,,,0.95,Wunderground v.1.15,2013-11-22 00:34:00,
2013-11-21 19:39:00,73.5,72.3,30.14,SW,226,2.0,4.0,96,0.12,,,0.96,Wunderground v.1.15,2013-11-22 00:39:00,
2013-11-21 19:44:00,73.6,72.4,30.14,SSW,208,0.0,5.0,96,0.10,,,0.97,Wunderground v.1.15,2013-11-22 00:44:00,
2013-11-21 19:49:00,73.7,72.5,30.14,SSW,203,0.0,5.0,96,0.12,,,0.98,Wunderground v.1.15,2013-11-22 00:49:00,
2013-11-21 19:54:00,73.7,72.5,30.14,NNE,15,0.0,1.0,96,0.12,,,0.99,Wunderground v.1.15,2013-11-22 00:54:00,
2013-11-21 19:59:00,73.9,72.7,30.14,East,98,0.0,1.0,96,0.10,,,1.00,Wunderground v.1.15,2013-11-22 00:59:00,
2013-11-21 20:04:00,73.9,72.7,30.14,East,99,0.0,0.0,96,0.12,,,1.01,Wunderground v.1.15,2013-11-22 01:04:00,
2013-11-21 20:09:00,74.0,72.8,30.14,East,90,0.0,0.0,96,0.08,,,1.02,Wunderground v.1.15,2013-11-22 01:09:00,
2013-11-21 20:14:00,74.0,72.8,30.14,East,86,0.0,0.0,96,0.08,,,1.02,Wunderground v.1.15,2013-11-22 01:14:00,
2013-11-21 20:19:00,74.0,72.8,30.14,East,82,0.0,2.0,96,0.13,,,1.04,Wunderground v.1.15,2013-11-22 01:19:00,
2013-11-21 20:24:00,74.1,72.9,30.15,East,89,0.0,2.0,96,0.14,,,1.05,Wunderground v.1.15,2013-11-22 01:24:00,
2013-11-21 20:29:00,74.2,73.0,30.14,East,87,0.0,5.0,96,0.11,,,1.06,Wunderground v.1.15,2013-11-22 01:29:00,
2013-11-21 20:34:00,74.3,73.1,30.15,ENE,57,0.0,3.0,96,0.17,,,1.07,Wunderground v.1.15,2013-11-22 01:34:00,
2013-11-21 20:39:00,74.2,73.0,30.14,East,86,1.0,5.0,96,0.24,,,1.09,Wunderground v.1.15,2013-11-22 01:39:00,
2013-11-21 20:44:00,74.0,72.8,30.14,ENE,77,0.0,3.0,96,0.08,,,1.09,Wunderground v.1.15,2013-11-22 01:44:00,
2013-11-21 20:49:00,73.9,72.7,30.15,NE,51,0.0,6.0,96,0.05,,,1.09,Wunderground v.1.15,2013-11-22 01:49:00,
2013-11-21 20:54:00,73.9,72.7,30.14,NE,49,0.0,1.0,96,0.04,,,1.11,Wunderground v.1.15,2013-11-22 01:54:00,
2013-11-21 20:59:00,74.0,72.8,30.14,NE,49,0.0,1.0,96,0.04,,,1.11,Wunderground v.1.15,2013-11-22 01:59:00,
2013-11-21 21:04:00,74.0,72.8,30.14,NE,49,0.0,0.0,96,0.08,,,1.12,Wunderground v.1.15,2013-11-22 02:04:00,
2013-11-21 21:08:00,74.1,72.9,30.14,NE,49,0.0,0.0,96,0.07,,,1.12,Wunderground v.1.15,2013-11-22 02:08:00,
2013-11-21 21:09:00,74.1,72.9,30.13,NE,50,0.0,0.0,96,0.07,,,1.12,Wunderground v.1.15,2013-11-22 02:09:00,
2013-11-21 21:14:00,74.1,72.9,30.14,NE,51,0.0,0.0,96,0.15,,,1.14,Wunderground v.1.15,2013-11-22 02:14:00,
2013-11-21 21:19:00,74.3,73.1,30.15,East,85,7.0,7.0,96,0.17,,,1.16,Wunderground v.1.15,2013-11-22 02:19:00,
2013-11-21 21:24:00,74.4,73.2,30.15,ENE,68,1.0,3.0,96,0.10,,,1.16,Wunderground v.1.15,2013-11-22 02:24:00,
2013-11-21 21:29:00,74.3,73.1,30.14,SE,134,0.0,6.0,96,0.08,,,1.17,Wunderground v.1.15,2013-11-22 02:29:00,
2013-11-21 21:34:00,74.1,72.9,30.15,East,79,0.0,4.0,96,0.07,,,1.17,Wunderground v.1.15,2013-11-22 02:34:00,
2013-11-21 21:39:00,74.0,72.8,30.15,ENE,68,1.0,4.0,96,0.05,,,1.18,Wunderground v.1.15,2013-11-22 02:39:00,
2013-11-21 21:44:00,74.0,72.8,30.15,ENE,68,0.0,1.0,96,0.05,,,1.18,Wunderground v.1.15,2013-11-22 02:44:00,
2013-11-21 21:49:00,74.0,72.8,30.14,East,98,0.0,3.0,96,0.05,,,1.18,Wunderground v.1.15,2013-11-22 02:49:00,
2013-11-21 21:54:00,74.1,72.9,30.14,East,83,0.0,1.0,96,0.00,,,1.18,Wunderground v.1.15,2013-11-22 02:54:00,
2013-11-21 21:59:00,74.1,72.9,30.14,East,82,0.0,1.0,96,0.00,,,1.18,Wunderground v.1.15,2013-11-22 02:59:00,
2013-11-21 22:04:00,74.1,72.9,30.15,East,82,0.0,0.0,96,0.00,,,1.18,Wunderground v.1.15,2013-11-22 03:04:00,
2013-11-21 22:09:00,74.1,72.9,30.15,East,84,0.0,1.0,96,0.00,,,1.18,Wunderground v.1.15,2013-11-22 03:09:00,
2013-11-21 22:14:00,74.2,73.0,30.15,East,83,0.0,1.0,96,0.00,,,1.18,Wunderground v.1.15,2013-11-22 03:14:00,
2013-11-21 22:19:00,74.3,73.1,30.14,ENE,60,0.0,3.0,96,0.00,,,1.18,Wunderground v.1.15,2013-11-22 03:19:00,
2013-11-21 22:24:00,74.4,73.2,30.14,East,85,0.0,2.0,96,0.00,,,1.18,Wunderground v.1.15,2013-11-22 03:24:00,
2013-11-21 22:29:00,74.3,73.1,30.14,East,101,0.0,3.0,96,0.00,,,1.18,Wunderground v.1.15,2013-11-22 03:29:00,
2013-11-21 22:34:00,74.3,73.1,30.14,East,89,0.0,1.0,96,0.00,,,1.18,Wunderground v.1.15,2013-11-22 03:34:00,
2013-11-21 22:39:00,74.3,73.1,30.14,East,101,2.0,4.0,96,0.00,,,1.18,Wunderground v.1.15,2013-11-22 03:39:00,
2013-11-21 22:44:00,74.4,73.2,30.14,East,90,2.0,8.0,96,0.00,,,1.18,Wunderground v.1.15,2013-11-22 03:44:00,
2013-11-21 22:49:00,74.6,73.1,30.15,ENE,68,6.0,8.0,95,0.00,,,1.18,Wunderground v.1.15,2013-11-22 03:49:00,
2013-11-21 22:54:00,74.7,73.2,30.15,NNW,341,3.0,9.0,95,0.00,,,1.18,Wunderground v.1.15,2013-11-22 03:54:00,
2013-11-21 22:59:00,74.6,72.8,30.15,East,84,2.0,9.0,94,0.24,,,1.22,Wunderground v.1.15,2013-11-22 03:59:00,
2013-11-21 23:04:00,74.6,72.8,30.14,East,86,5.0,11.0,94,0.09,,,1.23,Wunderground v.1.15,2013-11-22 04:04:00,
2013-11-21 23:09:00,74.4,72.6,30.15,East,85,4.0,11.0,94,0.11,,,1.24,Wunderground v.1.15,2013-11-22 04:09:00,
2013-11-21 23:15:00,74.1,72.3,30.14,North,11,1.0,14.0,94,0.56,,,1.27,Wunderground v.1.15,2013-11-22 04:15:00,
2013-11-21 23:20:00,73.7,71.9,30.14,ENE,63,4.0,5.0,94,0.23,,,1.29,Wunderground v.1.15,2013-11-22 04:20:00,
2013-11-21 23:25:00,73.4,71.9,30.14,ESE,121,0.0,9.0,95,0.39,,,1.33,Wunderground v.1.15,2013-11-22 04:25:00,
2013-11-21 23:30:00,73.4,71.9,30.14,East,96,0.0,3.0,95,0.19,,,1.35,Wunderground v.1.15,2013-11-22 04:30:00,
2013-11-21 23:35:00,73.5,72.0,30.14,NE,55,0.0,3.0,95,0.13,,,1.36,Wunderground v.1.15,2013-11-22 04:35:00,
2013-11-21 23:40:00,73.5,72.3,30.13,East,92,3.0,3.0,96,0.11,,,1.37,Wunderground v.1.15,2013-11-22 04:40:00,
2013-11-21 23:45:00,73.7,72.5,30.13,ENE,60,1.0,4.0,96,0.07,,,1.37,Wunderground v.1.15,2013-11-22 04:45:00,
2013-11-21 23:50:00,73.9,72.7,30.13,ENE,77,3.0,7.0,96,0.04,,,1.37,Wunderground v.1.15,2013-11-22 04:50:00,
2013-11-21 23:55:00,74.1,72.9,30.12,East,93,2.0,7.0,96,0.00,,,1.37,Wunderground v.1.15,2013-11-22 04:55:00,